Terug naar catalogus

SL-14 DEB

ActiefPO
NORAD 19232·DEBRIS·🇷🇺 Russia

Gelanceerd Oct 26, 1978 vanaf Plesetsk Cosmodrome

Loading…

Volgende Passages (komende 24 uur)

TLE

VersSource: Space-Track

Epoch: Sep 13, 2026, 08:06 UTC

1 19232U 78100AB  26256.33814825  .00000000  00000-0 -14561-3 0  9999
2 19232  82.3320 218.4572 0189662 164.1620 351.4480 11.67585269633331

Volg SL-14 DEB in realtime met AllMySat

Download on the App Store